Location: Potomac
(46.8816°N, 113.5795°W)
Time: 11:56:03
(UTC+00:00)

Gurwin Techsat 1B - Pass Details

Date: 29 June 2022
Orbit: 812 x 813 km, 98.8° (Epoch: 13 August)

Event Time Altitude Azimuth Distance (km) Brightness Sun altitude
Rises 09:31:12 0° 21° (NNE) 3,346 13.7 -15.4°
Reaches altitude 10° 09:33:44 10° 30° (NNE) 2,410 12.5 -15.2°
Maximum altitude 09:38:39 37° 97° (E) 1,253 9.8 -14.8°
Drops below altitude 10° 09:43:31 10° 164° (SSE) 2,393 10.7 -14.4°
Enters shadow 09:43:35 10° 164° (SSE) 2,415 10.7 -14.4°
